RH
80 84 86 82 84 84 82 82 82 82 79 78 76 78 81 84 92 92 80 80 66 66 66 67 66 66 66 66 66 66 66 66 66
80 85 86 83 86 82 79 80 81 80 78 77 76 80 83 93 94 92 88 77 65 65 66 66 66 66 66 66 66 66 66 66 65
79 83 83 83 83 78 78 80 80 78 76 75 78 81 83 88 94 92 90 73 65 65 66 66 66 66 66 66 66 66 65 66 66
79 82 81 84 84 81 83 83 78 77 74 75 80 83 85 94 92 84 91 74 66 66 66 66 66 66 66 66 66 66 66 65 65
83 84 82 87 87 84 83 83 78 76 74 78 82 86 86 94 93 94 88 69 66 66 66 66 66 67 67 67 66 66 66 65 66
91 92 89 91 90 85 84 83 84 86 85 84 86 86 96 95 96 96 78 68 67 67 68 67 68 68 68 67 67 66 66 66 66
96 95 95 93 92 88 83 82 86 89 96 96 87 96 95 96 95 95 77 67 67 68 68 68 68 68 68 67 67 67 67 67 67
98 96 99 99 98 98 94 92 90 91 95 95 94 94 95 97 97 89 78 68 67 68 69 69 69 68 68 68 67 67 67 67 68
99 98 99 99 99 98 97 97 94 92 91 92 92 92 95 97 98 94 83 75 69 68 68 68 68 67 66 67 67 67 67 68 67
99 100 99 99 99 98 98 96 96 94 92 91 90 92 92 93 98 98 89 82 74 69 69 68 68 67 66 67 67 67 66 66 66
98 99 99 99 98 97 97 96 96 95 91 89 88 91 92 92 94 97 95 88 82 72 69 69 69 68 68 68 68 67 66 64 63
98 99 99 98 97 95 96 94 93 92 82 84 85 88 92 93 94 95 96 94 90 83 72 70 70 69 67 67 69 67 65 63 60
98 98 98 98 98 97 96 95 94 93 87 80 80 85 88 92 94 95 96 96 95 92 86 80 74 71 69 69 67 69 68 66 62
96 97 98 97 98 97 95 95 93 93 91 83 82 82 82 84 82 94 94 95 96 97 92 91 88 83 74 68 73 72 71 70 68
92 94 95 95 97 97 97 93 94 91 88 80 82 90 88 84 85 86 87 95 94 96 96 96 96 92 86 78 72 73 76 75 73
92 91 92 93 88 86 91 94 93 95 94 92 90 89 86 85 84 81 88 88 92 94 96 97 97 97 92 89 81 79 79 75 76
86 90 90 89 90 94 93 90 95 93 94 93 94 92 81 86 89 88 82 84 86 89 93 95 95 96 94 94 91 88 83 80 76
85 86 85 87 88 90 91 88 89 93 96 90 84 93 90 90 91 93 93 91 94 93 90 92 94 95 95 92 91 88 82 80 77
90 89 88 89 90 93 89 84 90 90 92 97 88 89 82 90 87 89 90 88 92 93 94 94 95 95 96 92 88 82 77 75 74
96 92 91 95 96 92 95 94 91 94 94 92 97 96 96 93 93 90 88 83 82 85 86 86 87 82 85 85 88 75 72 70 70
Wind_Speed
20 20 20 20 18 18 17 17 17 16 16 15 15 15 15 12 7 6 8 6 16 16 16 16 16 17 17 17 17 17 18 18 18
21 20 20 19 17 18 17 17 18 17 15 15 15 14 14 7 6 5 5 6 16 16 16 15 16 16 16 16 16 17 17 17 17
19 20 18 18 19 18 16 17 17 16 15 15 14 13 12 7 6 6 4 11 15 15 15 15 15 15 15 15 15 16 16 16 16
19 18 17 17 18 16 15 17 17 15 15 14 13 13 12 7 4 4 3 11 14 14 13 14 13 14 14 14 14 14 14 15 15
17 14 15 16 17 15 14 15 15 15 15 14 12 11 11 6 5 3 3 12 12 13 12 12 12 13 12 12 12 12 13 13 13
11 9 11 13 15 14 14 14 14 13 12 11 11 9 4 4 3 2 8 10 11 11 11 11 11 11 11 11 11 11 12 12 12
8 10 12 13 13 12 13 15 14 9 4 4 7 3 4 3 3 2 7 10 10 10 10 10 10 9 9 10 10 10 10 11 10
6 7 5 5 7 4 6 6 4 6 4 4 3 4 3 2 1 2 6 9 9 9 9 9 8 8 8 8 8 8 8 9 9
5 5 5 4 3 5 5 3 5 5 5 5 4 4 2 1 0 1 5 6 8 8 8 8 7 7 6 6 7 6 7 7 7
5 4 4 4 4 4 4 4 4 4 4 3 4 4 3 3 1 1 4 5 6 7 7 7 7 6 5 5 5 5 5 5 6
5 5 4 4 4 4 4 4 4 3 2 2 3 5 4 4 3 3 3 5 5 6 6 7 7 7 7 6 5 5 4 4 4
5 4 4 3 3 5 3 3 2 2 2 2 2 3 4 4 4 3 3 3 6 7 7 7 7 7 6 6 6 6 5 5 4
6 5 4 4 4 4 3 3 2 1 1 1 2 3 3 5 5 4 4 4 3 5 8 8 9 8 8 7 7 8 9 8 7
7 6 5 5 4 4 3 2 2 2 2 3 2 3 3 5 3 6 6 6 5 4 6 8 8 9 10 9 12 12 12 11 12
7 5 6 6 4 4 3 3 3 2 3 2 3 3 4 4 5 5 4 5 5 5 5 4 4 9 11 13 13 13 11 13 13
9 6 6 6 7 7 7 3 4 3 2 2 2 3 5 5 5 4 4 5 6 5 5 4 3 4 11 12 15 16 13 13 14
9 8 7 8 6 5 5 4 2 2 4 3 2 3 4 2 4 3 4 6 4 5 5 5 5 5 3 5 10 13 13 14 15
10 9 8 7 6 6 6 6 6 4 3 5 3 0 4 3 0 1 4 5 3 3 4 5 5 5 4 5 5 4 5 8 11
6 6 5 5 4 5 6 5 3 3 4 2 5 3 3 3 3 1 1 3 5 4 3 3 3 5 4 4 3 3 4 7 8
5 6 6 5 3 3 5 5 6 4 3 3 2 3 3 3 3 4 2 1 1 2 3 3 1 3 3 1 2 3 4 6 8
Wind_Direction
124 119 116 118 122 120 117 115 117 119 111 108 104 101 95 83 68 60 76 76 88 85 86 84 84 80 80 80 78 76 74 71 69
128 122 121 124 127 121 124 125 120 117 115 112 110 106 97 88 76 69 68 88 92 91 89 87 85 83 83 80 77 77 76 74 73
131 125 126 132 127 125 127 136 126 121 118 116 115 110 99 86 80 70 63 91 93 92 91 88 87 85 81 80 80 77 76 75 73
133 131 135 139 125 121 125 129 128 125 121 120 118 110 102 91 85 76 60 95 98 96 93 91 89 87 84 82 78 79 78 77 76
135 135 143 136 125 120 125 131 128 123 120 120 117 106 97 93 87 73 86 101 101 100 98 95 93 88 85 83 81 78 76 74 72
135 138 141 132 126 122 122 125 121 115 114 115 110 99 93 96 95 84 104 109 107 104 102 99 95 91 90 84 80 76 76 72 69
138 140 133 127 124 123 122 118 111 101 103 107 101 101 108 105 119 124 122 119 115 111 109 105 101 98 94 89 86 80 78 76 73
128 136 129 128 118 108 103 104 97 110 117 120 119 124 133 131 138 152 137 129 125 121 118 116 114 109 104 98 94 90 87 83 78
127 133 127 120 109 116 112 111 115 107 110 133 137 144 154 139 145 219 153 140 135 133 129 129 122 114 108 102 97 93 91 88 83
122 110 107 108 111 122 124 134 134 131 128 132 172 175 179 171 173 234 199 167 156 153 149 145 140 134 129 123 120 117 111 106 100
127 125 127 130 141 146 145 153 147 137 128 170 176 187 185 194 197 205 230 211 191 181 175 169 163 162 159 158 156 148 144 141 133
132 133 139 149 137 134 125 119 101 98 117 162 192 192 201 205 211 215 213 236 225 217 207 195 194 189 185 178 176 172 176 180 173
138 146 160 151 145 150 149 144 134 161 202 173 212 206 197 217 215 213 213 215 222 235 235 216 207 208 217 200 192 195 201 197 199
163 168 164 157 159 168 165 154 149 178 222 230 217 222 221 227 210 223 218 214 211 212 238 239 227 216 221 226 218 213 210 203 206
172 172 165 163 160 168 162 165 183 174 199 223 240 234 231 225 225 226 217 215 215 213 220 230 230 230 228 237 248 248 228 212 223
173 172 166 169 180 191 190 147 180 216 158 98 315 281 236 222 217 217 215 213 216 213 215 215 221 232 235 238 250 261 260 230 221
179 173 179 181 179 168 162 156 150 197 176 144 95 318 320 287 235 218 222 226 214 225 217 214 217 222 223 238 253 268 292 298 296
185 183 175 178 178 182 181 183 174 186 202 208 155 118 250 295 271 187 209 213 211 239 234 225 220 206 213 234 257 298 303 294 291
161 154 148 153 169 174 192 172 172 189 198 217 217 192 161 256 322 293 205 210 196 208 206 256 228 210 204 201 200 201 270 293 300
171 146 149 148 204 186 183 181 185 186 202 214 153 209 201 201 189 274 269 256 180 195 172 169 160 322 50 15 286 294 298 303 302